Location: Eimen
(51.8766°N, 9.7806°E)
Time: 09:42:05
(UTC+00:00)

Cosmos 1300 Rocket - Pass Details

Date: 23 May 2024
Orbit: 597 x 623 km, 82.5° (Epoch: 24 June)

Event Time Altitude Azimuth Distance (km) Brightness Sun altitude
Rises 01:09:55 0° 349° (N) 2,880 7.9 -13.4°
Reaches altitude 10° 01:12:10 10° 350° (N) 1,967 7.0 -13.3°
Maximum altitude 01:16:31 84° 77° (ENE) 613 3.5 -13.0°
Enters shadow 01:20:34 12° 168° (SSE) 1,841 5.5 -12.7°
